"Pseudo-MPEC" for P21TDrJ

Created 2024 Apr 22 13:22:08 UT using Find_Orb

Click here for an explanation of pseudo-MPECs

 
 Astrometry: 
     P21TDrJ* C2024 04 17XA%AstrometrylZ1u(Gredacted;-@)`9xmMdeE,Qclick)SOe8SF52
     P21TDrJ  C2024 04 17GH1BNW#9,_`HlZQ-t)T!H?FTJO-Sny-Hr^P*;C6!)_Gj.lNbmv[mF52
     P21TDrJ  C2024 04 17*`vl9jE,mMEwW:@mhereo$,=vQforKh%h5UI(9c$+WnQWUx^TP;nF52
     P21TDrJ DC2024 04 18JcNI[$`lY([4,cNoA3Ljd*E=BSm^!=!?FJTJ%o=8wx')/y7BK'a/695
     P21TDrJ DC2024 04 18L$RYqj[4EZIU+N$g!TH+JW^by/explanationi`spdKO5o0J:e^c695
     P21TDrJ  C2024 04 18.48293216 24 00.639-03 40 22.41   ~4IC7 21.5 GVNEOCPH01
     P21TDrJ DC2024 04 18@ClxE3yT[^$8Bf7RVR%LpP!,Ef09QHKlnIk'HEba$)jl5x:nD\Ti695
     P21TDrJ KC2024 04 18.48625216 24 00.516-03 40 16.59   ~4IC7 21.7 GVNEOCPH01
     P21TDrJ  C2024 04 22.47094316 21 21.206-01 43 21.48   ~4MC7 22.5 GVNEOCPH01
     P21TDrJ  C2024 04 22.47844316 21 20.851-01 43 08.13   ~4MC7 23.2 GVNEOCPH01
     P21TDrJ KC2024 04 22.48410816 21 20.570-01 42 58.17   ~4MC7 21.9 GVNEOCPH01

Station data:
(695) Kitt Peak  (N31.958395 W111.594670)  US/Arizona. Measurer S. Deen.
   3.5-m f/1.75 reflector + CCD0.9-m f/7.5 reflector + CCD4.0-m
   Ritchey-Chrétien + CCD0.61-m f/3.5 Schmidt + CCD2.3-m f/9 reflector + CCD.
(F52) Pan-STARRS 2, Haleakala  (N20.707382 W156.255910)  US/Hawaii.
   Observers J. Bulger, T. Dukes, T. Lowe, A. Schultz, M. Willman. Measurers
   K. Chambers, S. Chastel, T. de Boer, L. Denneau, J. Fairlamb, H.
   Flewelling, M. Huber, C.-C. Lin, E. Magnier, Y. Ramanjooloo, R. Wainscoat,
   R. Weryk. 1.8-m Ritchey-Chrétien + CCD.
(H01) Magdalena Ridge Observatory, Socorro  (N33.984833 W107.189333)  US/New
   Mexico.  Observers W. H. Ryan, E. V. Ryan. Measurer W. H. Ryan. 2.4-m
   f/8.9 reflector + CCD.

Orbital elements:  P21TDrJ
   Perihelion 2023 Jul 30.08242 +/- 2.39 TT =  1:58:40 (JD 2460155.58242)
Epoch 2024 Apr 22.0 TT = JDT 2460422.5   Earth MOID: 0.4701   Ma: 0.0460
M 127.66467407 +/- 1.2              (J2000 ecliptic)             AutoNEOCP
n   0.47829248 +/- 0.00211          Peri.  241.52314 +/- 1.0
a   1.61934858 +/- 0.00476          Node   207.47623 +/- 0.13
e   0.1448582 +/- 0.000505          Incl.   26.88093 +/- 0.17
P   2.06/752.66d           H 20.20  G  0.15   U  8.6
q 1.38477255 +/- 0.00445    Q 1.85392461 +/- 0.00519
From 11 observations 2024 Apr. 17-22; mean residual 0".07
Residuals in arcseconds: 
240417 F52  .12-  .11+    240418 695  .03-  .05+    240422 H01  .01-  .02-    
240417 F52  .15+  .05-    240418 H01  .04-  .07-    240422 H01  .07+  .05+    
240417 F52  .02-  .07-    240418 695  .08+  .01-    240422 H01  .06-  .03-    
240418 695  .01-  .12+    240418 H01  .00   .05-    

Ephemerides (geocentric):
Date (UTC) HH   RA             Dec           delta  r     elong  mag " sig PA
---- --------  ------------   ------------  ------ ------ -----  --- --------
2024 04 22 13  16 21 18.282   -01 41 10.41  .86923 1.7820 143.7 22.1 .047  97
2024 04 22 14  16 21 16.399   -01 39 56.64  .86909 1.7821 143.8 22.1 .058  91
2024 04 22 15  16 21 14.513   -01 38 42.86  .86895 1.7821 143.8 22.1 .071  86
2024 04 22 16  16 21 12.622   -01 37 29.08  .86881 1.7822 143.9 22.1 .084  83
2024 04 22 17  16 21 10.726   -01 36 15.29  .86867 1.7822 143.9 22.1 .097  81
2024 04 22 18  16 21 08.827   -01 35 01.50  .86854 1.7823 143.9 22.1 .111  79
2024 04 22 19  16 21 06.923   -01 33 47.70  .86840 1.7823 144.0 22.1 .125  78
2024 04 22 20  16 21 05.015   -01 32 33.90  .86826 1.7824 144.0 22.1 .139  77
2024 04 22 21  16 21 03.103   -01 31 20.10  .86813 1.7824 144.0 22.1 .153  76
2024 04 22 22  16 21 01.187   -01 30 06.29  .86799 1.7825 144.1 22.1 .168  75
2024 04 22 23  16 20 59.266   -01 28 52.48  .86786 1.7825 144.1 22.1 .183  74
2024 04 23 00  16 20 57.342   -01 27 38.67  .86772 1.7826 144.1 22.1 .198  74
2024 04 23 01  16 20 55.413   -01 26 24.85  .86759 1.7826 144.2 22.1 .214  73
2024 04 23 02  16 20 53.480   -01 25 11.02  .86745 1.7827 144.2 22.1 .229  73
2024 04 23 03  16 20 51.543   -01 23 57.20  .86732 1.7828 144.2 22.1 .245  72
2024 04 23 04  16 20 49.601   -01 22 43.37  .86719 1.7828 144.3 22.1 .261  72
2024 04 23 05  16 20 47.656   -01 21 29.54  .86705 1.7829 144.3 22.1 .278  72
2024 04 23 06  16 20 45.706   -01 20 15.70  .86692 1.7829 144.3 22.1 .294  71
2024 04 23 07  16 20 43.752   -01 19 01.86  .86679 1.7830 144.4 22.1 .311  71
2024 04 23 08  16 20 41.794   -01 17 48.02  .86666 1.7830 144.4 22.1 .328  71
2024 04 23 09  16 20 39.832   -01 16 34.18  .86652 1.7831 144.4 22.1 .345  70
2024 04 23 10  16 20 37.865   -01 15 20.33  .86639 1.7831 144.5 22.1 .362  70
2024 04 23 11  16 20 35.895   -01 14 06.48  .86626 1.7832 144.5 22.1 .380  70
2024 04 23 12  16 20 33.920   -01 12 52.63  .86613 1.7832 144.5 22.1 .398  70
2024 04 23 13  16 20 31.941   -01 11 38.77  .86600 1.7833 144.6 22.1 .416  70
2024 04 23 14  16 20 29.958   -01 10 24.92  .86587 1.7833 144.6 22.1 .434  69
2024 04 23 15  16 20 27.971   -01 09 11.06  .86574 1.7834 144.6 22.1 .453  69
2024 04 23 16  16 20 25.980   -01 07 57.20  .86562 1.7834 144.7 22.1 .471  69
2024 04 23 17  16 20 23.985   -01 06 43.33  .86549 1.7835 144.7 22.1 .490  69
2024 04 23 18  16 20 21.986   -01 05 29.47  .86536 1.7836 144.7 22.1 .509  69
2024 04 23 19  16 20 19.982   -01 04 15.60  .86523 1.7836 144.8 22.1 .529  69
2024 04 23 20  16 20 17.974   -01 03 01.74  .86510 1.7837 144.8 22.1 .548  69
2024 04 23 21  16 20 15.963   -01 01 47.87  .86498 1.7837 144.8 22.1 .568  69
2024 04 23 22  16 20 13.947   -01 00 34.00  .86485 1.7838 144.9 22.1 .588  68
2024 04 23 23  16 20 11.927   -00 59 20.13  .86473 1.7838 144.9 22.1 .608  68
2024 04 24 00  16 20 09.903   -00 58 06.25  .86460 1.7839 144.9 22.1 .629  68
2024 04 24 01  16 20 07.875   -00 56 52.38  .86447 1.7839 145.0 22.1 .649  68
2024 04 24 02  16 20 05.842   -00 55 38.51  .86435 1.7840 145.0 22.1 .670  68
2024 04 24 03  16 20 03.806   -00 54 24.63  .86423 1.7840 145.0 22.1 .691  68
2024 04 24 04  16 20 01.766   -00 53 10.76  .86410 1.7841 145.1 22.1 .712  68
2024 04 24 05  16 19 59.721   -00 51 56.88  .86398 1.7841 145.1 22.1 .734  68
2024 04 24 06  16 19 57.672   -00 50 43.01  .86385 1.7842 145.1 22.1 .756  68
2024 04 24 07  16 19 55.620   -00 49 29.13  .86373 1.7842 145.2 22.1 .777  68
2024 04 24 08  16 19 53.563   -00 48 15.25  .86361 1.7843 145.2 22.1 .800  67
2024 04 24 09  16 19 51.502   -00 47 01.38  .86349 1.7843 145.2 22.1 .822  67
2024 04 24 10  16 19 49.438   -00 45 47.50  .86337 1.7844 145.3 22.1 .844  67
2024 04 24 11  16 19 47.369   -00 44 33.63  .86324 1.7844 145.3 22.1 .867  67
2024 04 24 12  16 19 45.296   -00 43 19.75  .86312 1.7845 145.3 22.1 .890  67